Lovelock, NV

3:56 AM PDT on June 23, 2017 (GMT -0700)
Derby

Weather History for KLOL - September, 2012

Change the Weather History Date:

Saturday, September 29, 2012

  Actual Average Record
Temperature  
Mean Temperature 63 °F -  
Max Temperature 87 °F 79 °F 98 °F (2010)
Min Temperature 39 °F 43 °F 25 °F (1959)
Degree Days  
Heating Degree Days 2    
Growing Degree Days 13 (Base 50)    
Moisture  
Dew Point 28 °F    
Average Humidity 30    
Maximum Humidity 58    
Minimum Humidity 10    
Precipitation  
Precipitation 0.00 in - - ()
Sea Level Pressure  
Sea Level Pressure 30.07 in    
Wind  
Wind Speed 3 mph (ESE)    
Max Wind Speed 8 mph    
Max Gust Speed -    
Visibility 10 miles    
Events      
Averages and records for this station are not official NWS values.
T = Trace of Precipitation, MM = Missing Value Source: NWS Daily Summary

Daily Weather History Graph

Daily Weather History Graph

Search for Another Location

Airport or City:

Trip Planner

Search our weather history database for the weather conditions in past years. The results will help you decide how hot, cold, wet, or windy it might be!

Date:

Astronomy

Sep. 29, 2012 Rise Set
Actual Time 6:49 AM PDT 6:38 PM PDT
Civil Twilight 6:22 AM PDT 7:05 PM PDT
Nautical Twilight 5:50 AM PDT 7:37 PM PDT
Astronomical Twilight 5:18 AM PDT 8:09 PM PDT
Moon 6:13 PM PDT (9/29) 6:25 AM PDT (9/29)
Length of Visible Light 12h 43m
Length of Day
11h 49m
Full, 100% of the Moon is Illuminated
Sep 29
Full
Sep 29
Full
Oct 8
Last Quarter
Oct 15
New
Oct 21
First Quarter

Hourly Weather History & Observations

Time (PDT) Temp. Windchill Dew Point Humidity Pressure Visibility Wind Dir Wind Speed Gust Speed Precip Events Conditions
12:53 AM 51.1 °F - 28.9 °F 43% 29.99 in 10.0 mi Variable 3.5 mph - N/A   Clear
1:53 AM 46.9 °F - 27.0 °F 46% 30.00 in 10.0 mi Calm Calm - N/A   Clear
2:53 AM 53.1 °F - 27.0 °F 37% 29.99 in 10.0 mi North 5.8 mph - N/A   Clear
3:53 AM 46.0 °F 42.5 °F 28.9 °F 51% 30.01 in 10.0 mi East 6.9 mph - N/A   Clear
4:53 AM 45.0 °F 43.5 °F 28.0 °F 52% 30.04 in 10.0 mi NNW 3.5 mph - N/A   Clear
5:53 AM 43.0 °F - 28.0 °F 56% 30.06 in 10.0 mi Calm Calm - N/A   Clear
6:53 AM 39.9 °F - 26.1 °F 58% 30.10 in 10.0 mi Calm Calm - N/A   Clear
7:53 AM 50.0 °F - 30.0 °F 46% 30.13 in 10.0 mi North 3.5 mph - N/A   Clear
8:53 AM 57.9 °F - 30.9 °F 36% 30.13 in 10.0 mi Calm Calm - N/A   Clear
9:53 AM 68.0 °F - 30.9 °F 25% 30.13 in 10.0 mi Calm Calm - N/A   Clear
10:53 AM 73.9 °F - 30.9 °F 21% 30.12 in 10.0 mi Calm Calm - N/A   Clear
11:53 AM 79.0 °F - 30.9 °F 17% 30.10 in 10.0 mi Calm Calm - N/A   Clear
12:53 PM 82.9 °F - 30.9 °F 15% 30.09 in 10.0 mi South 6.9 mph - N/A   Clear
1:53 PM 84.0 °F - 28.9 °F 14% 30.06 in 10.0 mi Variable 4.6 mph - N/A   Clear
2:53 PM 86.0 °F - 27.0 °F 12% 30.03 in 10.0 mi SW 8.1 mph - N/A   Clear
3:53 PM 87.1 °F - 25.0 °F 10% 30.03 in 10.0 mi ESE 4.6 mph - N/A   Clear
4:53 PM 86.0 °F - 25.0 °F 11% 30.02 in 10.0 mi SE 6.9 mph - N/A   Clear
5:53 PM 84.0 °F - 24.1 °F 11% 30.04 in 10.0 mi South 3.5 mph - N/A   Clear
6:53 PM 75.0 °F - 28.0 °F 18% 30.06 in 10.0 mi SSE 5.8 mph - N/A   Clear
7:53 PM 66.0 °F - 24.1 °F 20% 30.08 in 10.0 mi WNW 4.6 mph - N/A   Clear
8:53 PM 61.0 °F - 23.0 °F 23% 30.09 in 10.0 mi NW 6.9 mph - N/A   Clear
9:53 PM 55.0 °F - 27.0 °F 34% 30.10 in 10.0 mi East 4.6 mph - N/A   Clear
10:53 PM 57.0 °F - 30.0 °F 36% 30.09 in 10.0 mi Calm Calm - N/A   Clear
11:53 PM 53.1 °F - 23.0 °F 31% 30.10 in 10.0 mi WNW 4.6 mph - N/A   Clear